Time,TemperatureF,DewpointF,PressureIn,WindDirection,WindDirectionDegrees,WindSpeedMPH,WindSpeedGustMPH,Humidity,HourlyPrecipIn,Conditions,Clouds,dailyrainin,SolarRadiationWatts/m^2,SoftwareType,DateUTC
2013-02-28 00:00:00,34.4,33.9,29.57,SW,235,3.0,6.0,98,0.02,,,0.66,0,WxPro DR1,2013-02-28 05:00:00,
2013-02-28 00:05:00,34.4,33.9,29.56,SW,214,3.0,6.0,98,0.02,,,0.00,0,WxPro DR1,2013-02-28 05:05:00,
2013-02-28 00:10:00,34.4,33.9,29.56,SW,222,7.0,7.0,98,0.02,,,0.00,0,WxPro DR1,2013-02-28 05:10:00,
2013-02-28 00:15:00,34.3,33.8,29.56,SW,223,5.0,7.0,98,0.03,,,0.01,0,WxPro DR1,2013-02-28 05:15:00,
2013-02-28 00:20:00,34.2,33.7,29.56,SW,215,3.0,9.0,98,0.03,,,0.01,0,WxPro DR1,2013-02-28 05:20:00,
2013-02-28 00:25:00,34.1,33.6,29.56,South,172,0.0,9.0,98,0.02,,,0.01,0,WxPro DR1,2013-02-28 05:25:00,
2013-02-28 00:30:00,34.1,33.6,29.56,SW,219,2.0,7.0,98,0.02,,,0.01,0,WxPro DR1,2013-02-28 05:30:00,
2013-02-28 00:35:00,34.0,33.5,29.56,SW,217,1.0,5.0,98,0.03,,,0.02,0,WxPro DR1,2013-02-28 05:35:00,
2013-02-28 00:40:00,33.9,33.4,29.56,SW,217,2.0,5.0,98,0.03,,,0.02,0,WxPro DR1,2013-02-28 05:40:00,
2013-02-28 00:45:00,33.9,33.4,29.56,SSW,192,1.0,6.0,98,0.03,,,0.02,0,WxPro DR1,2013-02-28 05:45:00,
2013-02-28 00:50:00,33.9,33.4,29.56,SSW,192,0.0,6.0,98,0.03,,,0.02,0,WxPro DR1,2013-02-28 05:50:00,
2013-02-28 00:55:00,33.9,33.4,29.56,SSW,194,2.0,5.0,98,0.02,,,0.02,0,WxPro DR1,2013-02-28 05:55:00,
2013-02-28 01:00:00,33.9,33.4,29.56,SSW,202,2.0,7.0,98,0.03,,,0.03,0,WxPro DR1,2013-02-28 06:00:00,
2013-02-28 01:05:00,33.9,33.4,29.56,SW,221,1.0,7.0,98,0.03,,,0.03,0,WxPro DR1,2013-02-28 06:05:00,
2013-02-28 01:10:00,33.9,33.4,29.55,SW,220,0.0,5.0,98,0.03,,,0.03,0,WxPro DR1,2013-02-28 06:10:00,
2013-02-28 01:15:00,33.9,33.4,29.56,SW,215,0.0,5.0,98,0.02,,,0.03,0,WxPro DR1,2013-02-28 06:15:00,
2013-02-28 01:20:00,33.9,33.4,29.56,SSW,203,0.0,10.0,98,0.02,,,0.03,0,WxPro DR1,2013-02-28 06:20:00,
2013-02-28 01:25:00,33.9,33.4,29.56,SSW,213,3.0,10.0,98,0.02,,,0.03,0,WxPro DR1,2013-02-28 06:25:00,
2013-02-28 01:30:00,34.0,33.5,29.55,SSW,212,0.0,9.0,98,0.03,,,0.04,0,WxPro DR1,2013-02-28 06:30:00,
2013-02-28 01:35:00,34.0,33.5,29.55,WSW,250,0.0,9.0,98,0.02,,,0.04,0,WxPro DR1,2013-02-28 06:35:00,
2013-02-28 01:40:00,34.0,33.5,29.55,SW,228,4.0,11.0,98,0.02,,,0.04,0,WxPro DR1,2013-02-28 06:40:00,
2013-02-28 01:45:00,34.0,33.5,29.55,SW,223,0.0,11.0,98,0.02,,,0.04,0,WxPro DR1,2013-02-28 06:45:00,
2013-02-28 01:50:00,34.0,33.5,29.55,SSW,207,0.0,7.0,98,0.02,,,0.04,0,WxPro DR1,2013-02-28 06:50:00,
2013-02-28 01:55:00,34.0,33.5,29.55,SW,235,1.0,6.0,98,0.02,,,0.04,0,WxPro DR1,2013-02-28 06:55:00,
2013-02-28 02:00:00,34.0,33.5,29.55,SW,215,2.0,6.0,98,0.01,,,0.04,0,WxPro DR1,2013-02-28 07:00:00,
2013-02-28 02:05:00,34.0,33.5,29.55,SW,214,0.0,6.0,98,0.01,,,0.04,0,WxPro DR1,2013-02-28 07:05:00,
2013-02-28 02:10:00,34.0,33.5,29.55,SW,215,1.0,4.0,98,0.01,,,0.04,0,WxPro DR1,2013-02-28 07:10:00,
2013-02-28 02:15:00,34.0,33.5,29.55,WSW,240,0.0,8.0,98,0.02,,,0.05,0,WxPro DR1,2013-02-28 07:15:00,
2013-02-28 02:20:00,34.0,33.5,29.55,SW,230,0.0,8.0,98,0.02,,,0.05,0,WxPro DR1,2013-02-28 07:20:00,
2013-02-28 02:25:00,34.0,33.5,29.55,SW,228,1.0,6.0,98,0.02,,,0.05,0,WxPro DR1,2013-02-28 07:25:00,
2013-02-28 02:30:00,34.0,33.5,29.55,SW,232,0.0,6.0,98,0.02,,,0.05,0,WxPro DR1,2013-02-28 07:30:00,
2013-02-28 02:35:00,33.9,33.4,29.55,SW,220,0.0,7.0,98,0.01,,,0.05,0,WxPro DR1,2013-02-28 07:35:00,
2013-02-28 02:40:00,34.0,33.5,29.54,SW,219,0.0,7.0,98,0.01,,,0.05,0,WxPro DR1,2013-02-28 07:40:00,
2013-02-28 02:45:00,34.0,33.5,29.54,SW,219,1.0,3.0,98,0.01,,,0.05,0,WxPro DR1,2013-02-28 07:45:00,
2013-02-28 02:50:00,34.0,33.5,29.54,SW,219,1.0,3.0,98,0.01,,,0.05,0,WxPro DR1,2013-02-28 07:50:00,
2013-02-28 02:55:00,34.0,33.5,29.54,SSW,203,0.0,6.0,98,0.01,,,0.05,0,WxPro DR1,2013-02-28 07:55:00,
2013-02-28 03:00:00,34.0,33.5,29.54,SSW,201,0.0,6.0,98,0.01,,,0.05,0,WxPro DR1,2013-02-28 08:00:00,
2013-02-28 03:05:00,34.0,33.5,29.54,SSW,209,0.0,4.0,98,0.01,,,0.05,0,WxPro DR1,2013-02-28 08:05:00,
2013-02-28 03:10:00,34.0,33.5,29.54,South,181,0.0,4.0,98,0.02,,,0.06,0,WxPro DR1,2013-02-28 08:10:00,
2013-02-28 03:15:00,34.0,33.5,29.54,SSE,168,1.0,4.0,98,0.01,,,0.06,0,WxPro DR1,2013-02-28 08:15:00,
2013-02-28 03:20:00,34.0,33.5,29.53,South,187,1.0,4.0,98,0.01,,,0.06,0,WxPro DR1,2013-02-28 08:20:00,
2013-02-28 03:25:00,34.0,33.5,29.54,SW,218,0.0,4.0,98,0.01,,,0.06,0,WxPro DR1,2013-02-28 08:25:00,
2013-02-28 03:30:00,34.0,33.5,29.54,SSW,194,2.0,5.0,98,0.01,,,0.06,0,WxPro DR1,2013-02-28 08:30:00,
2013-02-28 03:35:00,34.0,33.5,29.53,SSW,210,0.0,6.0,98,0.01,,,0.06,0,WxPro DR1,2013-02-28 08:35:00,
2013-02-28 03:40:00,34.0,33.5,29.53,SSW,208,2.0,6.0,98,0.01,,,0.06,0,WxPro DR1,2013-02-28 08:40:00,
2013-02-28 03:45:00,34.1,33.6,29.53,SW,217,1.0,5.0,98,0.01,,,0.06,0,WxPro DR1,2013-02-28 08:45:00,
2013-02-28 03:50:00,34.1,33.6,29.53,SW,228,0.0,5.0,98,0.01,,,0.06,0,WxPro DR1,2013-02-28 08:50:00,
2013-02-28 03:55:00,34.1,33.6,29.53,SW,219,0.0,4.0,98,0.01,,,0.06,0,WxPro DR1,2013-02-28 08:55:00,
2013-02-28 04:00:00,34.1,33.6,29.53,SW,224,3.0,6.0,98,0.01,,,0.06,0,WxPro DR1,2013-02-28 09:00:00,
2013-02-28 04:05:00,34.1,33.6,29.53,South,175,1.0,6.0,98,0.01,,,0.06,0,WxPro DR1,2013-02-28 09:05:00,
2013-02-28 04:10:00,34.1,33.6,29.54,SSW,192,1.0,6.0,98,0.00,,,0.06,0,WxPro DR1,2013-02-28 09:10:00,
2013-02-28 04:15:00,34.1,33.6,29.54,SW,223,2.0,6.0,98,0.00,,,0.06,0,WxPro DR1,2013-02-28 09:15:00,
2013-02-28 04:20:00,34.1,33.6,29.53,SSW,212,4.0,6.0,98,0.00,,,0.06,0,WxPro DR1,2013-02-28 09:20:00,
2013-02-28 04:25:00,34.1,33.6,29.54,SSW,209,2.0,5.0,98,0.00,,,0.06,0,WxPro DR1,2013-02-28 09:25:00,
2013-02-28 04:30:00,34.0,33.5,29.53,SSW,203,0.0,4.0,98,0.00,,,0.06,0,WxPro DR1,2013-02-28 09:30:00,
2013-02-28 04:35:00,34.0,33.5,29.53,SSW,211,3.0,6.0,98,0.00,,,0.06,0,WxPro DR1,2013-02-28 09:35:00,
2013-02-28 04:40:00,34.0,33.5,29.54,SW,214,1.0,6.0,98,0.00,,,0.06,0,WxPro DR1,2013-02-28 09:40:00,
2013-02-28 04:45:00,34.0,33.5,29.54,SW,215,0.0,4.0,98,0.00,,,0.06,0,WxPro DR1,2013-02-28 09:45:00,
2013-02-28 04:50:00,34.0,33.5,29.54,SSW,208,0.0,4.0,98,0.00,,,0.06,0,WxPro DR1,2013-02-28 09:50:00,
2013-02-28 04:55:00,34.0,33.5,29.54,SSW,198,2.0,3.0,98,0.00,,,0.06,0,WxPro DR1,2013-02-28 09:55:00,
2013-02-28 05:00:00,34.0,33.5,29.54,SSW,198,0.0,3.0,98,0.00,,,0.06,0,WxPro DR1,2013-02-28 10:00:00,
2013-02-28 05:05:00,34.0,33.5,29.54,SSW,198,0.0,3.0,98,0.00,,,0.06,0,WxPro DR1,2013-02-28 10:05:00,
2013-02-28 05:10:00,33.9,33.4,29.54,SSW,198,1.0,3.0,98,0.00,,,0.06,0,WxPro DR1,2013-02-28 10:10:00,
2013-02-28 05:15:00,33.9,33.4,29.54,SSW,202,0.0,4.0,98,0.00,,,0.06,0,WxPro DR1,2013-02-28 10:15:00,
2013-02-28 05:20:00,33.9,33.4,29.54,SSW,202,0.0,4.0,98,0.00,,,0.06,0,WxPro DR1,2013-02-28 10:20:00,
2013-02-28 05:25:00,33.9,33.4,29.54,SSW,202,0.0,3.0,98,0.01,,,0.07,0,WxPro DR1,2013-02-28 10:25:00,
2013-02-28 05:30:00,33.9,33.4,29.54,SSW,202,0.0,3.0,98,0.01,,,0.07,0,WxPro DR1,2013-02-28 10:30:00,
2013-02-28 05:35:00,33.9,33.4,29.55,SSW,202,0.0,2.0,98,0.01,,,0.07,0,WxPro DR1,2013-02-28 10:35:00,
2013-02-28 05:40:00,33.8,33.3,29.55,SSW,202,1.0,2.0,98,0.01,,,0.07,0,WxPro DR1,2013-02-28 10:40:00,
2013-02-28 05:45:00,33.8,33.3,29.55,SSW,202,0.0,2.0,98,0.01,,,0.07,0,WxPro DR1,2013-02-28 10:45:00,
2013-02-28 05:50:00,33.8,33.3,29.55,SSW,202,0.0,2.0,98,0.01,,,0.07,0,WxPro DR1,2013-02-28 10:50:00,
2013-02-28 05:55:00,33.8,33.3,29.55,SSW,202,0.0,2.0,98,0.01,,,0.07,0,WxPro DR1,2013-02-28 10:55:00,
2013-02-28 06:00:00,33.8,33.3,29.55,SSW,202,0.0,2.0,98,0.01,,,0.07,0,WxPro DR1,2013-02-28 11:00:00,
2013-02-28 06:05:00,33.8,33.3,29.55,SSW,202,0.0,2.0,98,0.01,,,0.07,0,WxPro DR1,2013-02-28 11:05:00,
2013-02-28 06:10:00,33.8,33.3,29.55,SSW,202,0.0,2.0,98,0.01,,,0.07,0,WxPro DR1,2013-02-28 11:10:00,
2013-02-28 06:15:00,33.8,33.3,29.55,SSW,202,0.0,3.0,98,0.01,,,0.07,0,WxPro DR1,2013-02-28 11:15:00,
2013-02-28 06:20:00,33.8,33.3,29.55,SSW,202,0.0,3.0,98,0.01,,,0.07,0,WxPro DR1,2013-02-28 11:20:00,
2013-02-28 06:25:00,33.8,33.3,29.55,SSW,202,1.0,3.0,98,0.00,,,0.07,0,WxPro DR1,2013-02-28 11:25:00,
2013-02-28 06:30:00,33.8,33.3,29.55,SSW,202,1.0,2.0,98,0.00,,,0.07,0,WxPro DR1,2013-02-28 11:30:00,
2013-02-28 06:35:00,33.7,33.2,29.55,SSW,202,0.0,2.0,98,0.00,,,0.07,0,WxPro DR1,2013-02-28 11:35:00,
2013-02-28 06:40:00,33.7,33.2,29.55,SSW,202,0.0,2.0,98,0.00,,,0.07,0,WxPro DR1,2013-02-28 11:40:00,
2013-02-28 06:45:00,33.7,33.2,29.55,SSW,202,0.0,1.0,98,0.00,,,0.07,0,WxPro DR1,2013-02-28 11:45:00,
2013-02-28 06:50:00,33.7,33.2,29.55,SSW,202,0.0,3.0,98,0.00,,,0.07,0,WxPro DR1,2013-02-28 11:50:00,
2013-02-28 06:55:00,33.7,33.2,29.55,SSW,202,0.0,3.0,98,0.00,,,0.07,5,WxPro DR1,2013-02-28 11:55:00,
2013-02-28 07:00:00,33.7,33.2,29.55,SSW,201,0.0,3.0,98,0.00,,,0.07,7,WxPro DR1,2013-02-28 12:00:00,
2013-02-28 07:05:00,33.7,33.2,29.55,SSW,201,0.0,3.0,98,0.00,,,0.07,12,WxPro DR1,2013-02-28 12:05:00,
2013-02-28 07:10:00,33.7,33.2,29.56,SSW,201,1.0,3.0,98,0.00,,,0.07,16,WxPro DR1,2013-02-28 12:10:00,
2013-02-28 07:15:00,33.7,33.2,29.56,SSW,201,2.0,3.0,98,0.00,,,0.07,21,WxPro DR1,2013-02-28 12:15:00,
2013-02-28 07:20:00,33.7,33.2,29.56,SSW,201,1.0,4.0,98,0.00,,,0.07,26,WxPro DR1,2013-02-28 12:20:00,
2013-02-28 07:25:00,33.7,33.2,29.56,SSW,201,0.0,4.0,98,0.00,,,0.07,30,WxPro DR1,2013-02-28 12:25:00,
2013-02-28 07:30:00,33.8,33.3,29.56,SSW,207,0.0,4.0,98,0.00,,,0.07,35,WxPro DR1,2013-02-28 12:30:00,
2013-02-28 07:35:00,33.8,33.3,29.56,SSW,199,0.0,4.0,98,0.00,,,0.07,40,WxPro DR1,2013-02-28 12:35:00,
2013-02-28 07:40:00,33.8,33.3,29.56,SSW,201,0.0,4.0,98,0.00,,,0.07,42,WxPro DR1,2013-02-28 12:40:00,
2013-02-28 07:45:00,33.9,33.4,29.56,SSW,201,3.0,4.0,98,0.00,,,0.07,46,WxPro DR1,2013-02-28 12:45:00,
2013-02-28 07:50:00,33.9,33.4,29.56,SSW,201,2.0,4.0,98,0.00,,,0.07,49,WxPro DR1,2013-02-28 12:50:00,
2013-02-28 07:55:00,33.9,33.4,29.56,SSW,197,2.0,5.0,98,0.00,,,0.07,58,WxPro DR1,2013-02-28 12:55:00,
2013-02-28 08:00:00,33.9,33.4,29.56,SSW,198,2.0,5.0,98,0.00,,,0.07,63,WxPro DR1,2013-02-28 13:00:00,
2013-02-28 08:05:00,34.0,33.5,29.56,SSW,204,2.0,4.0,98,0.00,,,0.07,69,WxPro DR1,2013-02-28 13:05:00,
2013-02-28 08:10:00,34.0,33.3,29.56,South,182,2.0,6.0,97,0.00,,,0.07,70,WxPro DR1,2013-02-28 13:10:00,
2013-02-28 08:15:00,34.1,33.3,29.56,South,191,2.0,6.0,97,0.01,,,0.08,76,WxPro DR1,2013-02-28 13:15:00,
2013-02-28 08:20:00,34.2,33.7,29.56,South,191,0.0,3.0,98,0.01,,,0.08,88,WxPro DR1,2013-02-28 13:20:00,
2013-02-28 08:25:00,34.3,33.8,29.57,SSW,212,0.0,5.0,98,0.01,,,0.08,100,WxPro DR1,2013-02-28 13:25:00,
2013-02-28 08:30:00,34.4,33.6,29.57,SSW,211,0.0,5.0,97,0.01,,,0.08,109,WxPro DR1,2013-02-28 13:30:00,
2013-02-28 08:35:00,34.4,33.6,29.57,SW,214,1.0,4.0,97,0.01,,,0.08,113,WxPro DR1,2013-02-28 13:35:00,
2013-02-28 08:40:00,34.4,33.6,29.57,South,180,2.0,4.0,97,0.01,,,0.08,111,WxPro DR1,2013-02-28 13:40:00,
2013-02-28 08:45:00,34.4,33.6,29.57,South,186,1.0,3.0,97,0.01,,,0.08,109,WxPro DR1,2013-02-28 13:45:00,
2013-02-28 08:50:00,34.5,33.7,29.57,SW,220,0.0,4.0,97,0.01,,,0.08,111,WxPro DR1,2013-02-28 13:50:00,
2013-02-28 08:55:00,34.6,33.8,29.57,SW,214,4.0,4.0,97,0.02,,,0.09,109,WxPro DR1,2013-02-28 13:55:00,
2013-02-28 09:00:00,34.6,33.8,29.57,SW,215,2.0,4.0,97,0.02,,,0.09,86,WxPro DR1,2013-02-28 14:00:00,
2013-02-28 09:05:00,34.6,33.9,29.57,SSW,194,2.0,4.0,97,0.02,,,0.09,91,WxPro DR1,2013-02-28 14:05:00,
2013-02-28 09:10:00,34.7,33.9,29.57,South,183,4.0,5.0,97,0.02,,,0.09,105,WxPro DR1,2013-02-28 14:10:00,
2013-02-28 09:15:00,34.7,34.0,29.57,SSE,157,2.0,5.0,97,0.01,,,0.09,132,WxPro DR1,2013-02-28 14:15:00,
2013-02-28 09:20:00,34.9,34.1,29.57,SSE,158,0.0,5.0,97,0.02,,,0.10,134,WxPro DR1,2013-02-28 14:20:00,
2013-02-28 09:25:00,35.0,34.3,29.57,SW,219,4.0,4.0,97,0.02,,,0.10,137,WxPro DR1,2013-02-28 14:25:00,
2013-02-28 09:30:00,35.0,34.3,29.56,SSW,202,0.0,5.0,97,0.02,,,0.10,135,WxPro DR1,2013-02-28 14:30:00,
2013-02-28 09:35:00,35.1,34.3,29.57,SSW,192,0.0,5.0,97,0.02,,,0.10,165,WxPro DR1,2013-02-28 14:35:00,
2013-02-28 09:40:00,35.2,34.3,29.57,SW,220,0.0,6.0,97,0.02,,,0.10,181,WxPro DR1,2013-02-28 14:40:00,
2013-02-28 09:45:00,35.3,34.5,29.57,West,271,1.0,6.0,97,0.03,,,0.11,197,WxPro DR1,2013-02-28 14:45:00,
2013-02-28 09:50:00,35.4,34.4,29.57,SSW,203,1.0,6.0,96,0.03,,,0.11,197,WxPro DR1,2013-02-28 14:50:00,
2013-02-28 09:55:00,35.5,34.5,29.57,SSE,165,2.0,6.0,96,0.02,,,0.11,260,WxPro DR1,2013-02-28 14:55:00,
2013-02-28 10:00:00,35.8,34.8,29.57,South,175,1.0,4.0,96,0.03,,,0.12,244,WxPro DR1,2013-02-28 15:00:00,
2013-02-28 10:05:00,36.2,34.9,29.57,South,189,2.0,7.0,95,0.03,,,0.12,251,WxPro DR1,2013-02-28 15:05:00,
2013-02-28 10:10:00,36.2,34.6,29.56,SW,217,3.0,7.0,94,0.03,,,0.12,322,WxPro DR1,2013-02-28 15:10:00,
2013-02-28 10:15:00,36.3,34.7,29.56,SW,224,0.0,9.0,94,0.04,,,0.13,318,WxPro DR1,2013-02-28 15:15:00,
2013-02-28 10:20:00,36.4,34.6,29.56,SW,225,4.0,12.0,93,0.03,,,0.13,271,WxPro DR1,2013-02-28 15:20:00,
2013-02-28 10:25:00,36.4,34.3,29.56,SW,226,2.0,12.0,92,0.04,,,0.14,251,WxPro DR1,2013-02-28 15:25:00,
2013-02-28 10:30:00,36.5,34.4,29.56,SW,221,0.0,7.0,92,0.04,,,0.14,241,WxPro DR1,2013-02-28 15:30:00,
2013-02-28 10:35:00,36.7,34.6,29.57,SSW,209,1.0,4.0,92,0.05,,,0.15,206,WxPro DR1,2013-02-28 15:35:00,
2013-02-28 10:40:00,36.6,34.5,29.57,SW,230,3.0,6.0,92,0.05,,,0.15,243,WxPro DR1,2013-02-28 15:40:00,
2013-02-28 10:45:00,36.6,34.5,29.57,SW,231,1.0,6.0,92,0.05,,,0.16,274,WxPro DR1,2013-02-28 15:45:00,
2013-02-28 10:50:00,36.6,34.2,29.57,SW,221,1.0,9.0,91,0.05,,,0.16,311,WxPro DR1,2013-02-28 15:50:00,
2013-02-28 10:55:00,36.5,34.1,29.57,West,273,2.0,10.0,91,0.06,,,0.17,323,WxPro DR1,2013-02-28 15:55:00,
2013-02-28 11:00:00,36.7,34.0,29.57,SW,223,0.0,10.0,90,0.05,,,0.17,285,WxPro DR1,2013-02-28 16:00:00,
2013-02-28 11:05:00,36.7,34.0,29.57,WSW,253,1.0,12.0,90,0.06,,,0.18,313,WxPro DR1,2013-02-28 16:05:00,
2013-02-28 11:10:00,36.7,34.0,29.57,West,271,2.0,12.0,90,0.06,,,0.18,306,WxPro DR1,2013-02-28 16:10:00,
2013-02-28 11:15:00,36.8,34.1,29.57,SSW,210,2.0,9.0,90,0.06,,,0.19,288,WxPro DR1,2013-02-28 16:15:00,
2013-02-28 11:20:00,36.7,34.0,29.57,SSW,205,2.0,8.0,90,0.06,,,0.19,316,WxPro DR1,2013-02-28 16:20:00,
2013-02-28 11:25:00,36.7,33.7,29.57,SE,140,0.0,8.0,89,0.06,,,0.20,302,WxPro DR1,2013-02-28 16:25:00,
2013-02-28 11:30:00,36.7,33.8,29.57,South,179,1.0,7.0,89,0.06,,,0.20,283,WxPro DR1,2013-02-28 16:30:00,
2013-02-28 11:35:00,36.8,33.6,29.57,WSW,248,1.0,6.0,88,0.06,,,0.21,271,WxPro DR1,2013-02-28 16:35:00,
2013-02-28 11:40:00,36.8,33.3,29.57,SW,221,0.0,9.0,87,0.06,,,0.21,265,WxPro DR1,2013-02-28 16:40:00,
2013-02-28 11:45:00,36.9,33.6,29.57,South,180,0.0,9.0,88,0.06,,,0.22,227,WxPro DR1,2013-02-28 16:45:00,
2013-02-28 11:50:00,36.9,33.7,29.57,WSW,250,0.0,7.0,88,0.06,,,0.22,250,WxPro DR1,2013-02-28 16:50:00,
2013-02-28 11:55:00,36.9,33.7,29.57,WSW,245,2.0,6.0,88,0.06,,,0.23,283,WxPro DR1,2013-02-28 16:55:00,
2013-02-28 12:00:00,37.1,33.9,29.57,SW,219,5.0,6.0,88,0.06,,,0.23,295,WxPro DR1,2013-02-28 17:00:00,
2013-02-28 12:05:00,37.2,33.9,29.57,SSW,198,2.0,6.0,88,0.06,,,0.24,404,WxPro DR1,2013-02-28 17:05:00,
2013-02-28 12:10:00,37.3,34.1,29.57,WSW,253,0.0,6.0,88,0.06,,,0.24,367,WxPro DR1,2013-02-28 17:10:00,
2013-02-28 12:15:00,37.5,34.5,29.57,SW,217,5.0,6.0,89,0.06,,,0.25,330,WxPro DR1,2013-02-28 17:15:00,
2013-02-28 12:20:00,37.7,34.5,29.57,SSW,209,2.0,6.0,88,0.06,,,0.25,269,WxPro DR1,2013-02-28 17:20:00,
2013-02-28 12:25:00,37.6,34.1,29.57,West,259,2.0,7.0,87,0.06,,,0.26,179,WxPro DR1,2013-02-28 17:25:00,
2013-02-28 12:30:00,37.2,33.4,29.57,SW,221,0.0,7.0,86,0.06,,,0.26,151,WxPro DR1,2013-02-28 17:30:00,
2013-02-28 12:35:00,36.8,33.3,29.57,SW,222,3.0,8.0,87,0.06,,,0.27,128,WxPro DR1,2013-02-28 17:35:00,
2013-02-28 12:40:00,36.6,33.3,29.57,SSW,213,3.0,8.0,88,0.06,,,0.27,169,WxPro DR1,2013-02-28 17:40:00,
2013-02-28 12:45:00,36.4,33.5,29.57,WNW,284,0.0,6.0,89,0.05,,,0.27,230,WxPro DR1,2013-02-28 17:45:00,
2013-02-28 12:50:00,36.6,33.6,29.57,SSW,208,2.0,6.0,89,0.05,,,0.27,163,WxPro DR1,2013-02-28 17:50:00,
2013-02-28 12:55:00,36.5,33.6,29.57,WSW,248,0.0,6.0,89,0.04,,,0.27,139,WxPro DR1,2013-02-28 17:55:00,
2013-02-28 13:00:00,36.3,33.7,29.57,WSW,238,1.0,7.0,90,0.05,,,0.28,128,WxPro DR1,2013-02-28 18:00:00,
2013-02-28 13:05:00,36.2,33.6,29.57,WSW,257,6.0,9.0,90,0.04,,,0.28,199,WxPro DR1,2013-02-28 18:05:00,
2013-02-28 13:10:00,36.1,33.6,29.57,WSW,243,5.0,9.0,90,0.04,,,0.28,216,WxPro DR1,2013-02-28 18:10:00,
2013-02-28 13:15:00,36.2,33.8,29.57,SW,222,1.0,7.0,91,0.04,,,0.29,251,WxPro DR1,2013-02-28 18:15:00,
2013-02-28 13:20:00,36.3,33.9,29.57,SW,216,2.0,6.0,91,0.04,,,0.29,304,WxPro DR1,2013-02-28 18:20:00,
2013-02-28 13:25:00,36.5,34.1,29.57,SW,223,3.0,6.0,91,0.03,,,0.29,262,WxPro DR1,2013-02-28 18:25:00,
2013-02-28 13:30:00,36.5,34.2,29.57,WSW,257,4.0,7.0,91,0.04,,,0.30,287,WxPro DR1,2013-02-28 18:30:00,
2013-02-28 13:35:00,36.5,34.1,29.57,West,268,0.0,10.0,91,0.03,,,0.30,325,WxPro DR1,2013-02-28 18:35:00,
2013-02-28 13:40:00,36.5,34.1,29.57,WNW,286,4.0,10.0,91,0.04,,,0.31,313,WxPro DR1,2013-02-28 18:40:00,
2013-02-28 13:45:00,36.5,34.1,29.57,WSW,251,8.0,11.0,91,0.04,,,0.31,360,WxPro DR1,2013-02-28 18:45:00,
2013-02-28 13:50:00,36.7,34.4,29.57,WSW,248,3.0,11.0,91,0.05,,,0.32,223,WxPro DR1,2013-02-28 18:50:00,
2013-02-28 13:55:00,36.8,34.4,29.57,SSW,209,0.0,11.0,91,0.05,,,0.32,248,WxPro DR1,2013-02-28 18:55:00,
2013-02-28 14:00:00,36.9,34.2,29.57,SSW,209,3.0,7.0,90,0.05,,,0.33,202,WxPro DR1,2013-02-28 19:00:00,
2013-02-28 14:05:00,36.7,33.9,29.57,SSE,153,2.0,7.0,89,0.05,,,0.33,162,WxPro DR1,2013-02-28 19:05:00,
2013-02-28 14:10:00,36.5,33.6,29.57,West,267,4.0,9.0,89,0.06,,,0.34,139,WxPro DR1,2013-02-28 19:10:00,
2013-02-28 14:15:00,36.5,33.8,29.57,West,259,3.0,9.0,90,0.05,,,0.34,204,WxPro DR1,2013-02-28 19:15:00,
2013-02-28 14:20:00,36.5,33.6,29.57,WSW,252,5.0,9.0,89,0.05,,,0.34,257,WxPro DR1,2013-02-28 19:20:00,
2013-02-28 14:25:00,36.7,33.8,29.57,SW,236,3.0,9.0,89,0.06,,,0.35,192,WxPro DR1,2013-02-28 19:25:00,
2013-02-28 14:30:00,36.8,33.9,29.57,WSW,244,0.0,9.0,89,0.05,,,0.35,181,WxPro DR1,2013-02-28 19:30:00,
2013-02-28 14:35:00,36.9,33.7,29.57,West,275,1.0,10.0,88,0.05,,,0.35,183,WxPro DR1,2013-02-28 19:35:00,
2013-02-28 14:40:00,37.0,33.8,29.57,West,265,1.0,10.0,88,0.05,,,0.36,308,WxPro DR1,2013-02-28 19:40:00,
2013-02-28 14:45:00,37.1,33.9,29.57,WSW,255,2.0,10.0,88,0.05,,,0.36,199,WxPro DR1,2013-02-28 19:45:00,
2013-02-28 14:50:00,37.2,33.7,29.57,WSW,255,4.0,10.0,87,0.04,,,0.36,241,WxPro DR1,2013-02-28 19:50:00,
2013-02-28 14:55:00,37.2,33.7,29.57,WSW,251,2.0,9.0,87,0.05,,,0.37,204,WxPro DR1,2013-02-28 19:55:00,
2013-02-28 15:00:00,37.2,34.0,29.57,South,175,0.0,8.0,88,0.04,,,0.37,195,WxPro DR1,2013-02-28 20:00:00,
2013-02-28 15:05:00,37.3,33.8,29.58,West,272,4.0,8.0,87,0.04,,,0.37,185,WxPro DR1,2013-02-28 20:05:00,
2013-02-28 15:10:00,37.2,33.4,29.57,WSW,256,1.0,8.0,86,0.04,,,0.38,197,WxPro DR1,2013-02-28 20:10:00,
2013-02-28 15:15:00,37.2,33.4,29.58,West,265,0.0,7.0,86,0.04,,,0.38,192,WxPro DR1,2013-02-28 20:15:00,
2013-02-28 15:20:00,37.3,33.5,29.58,West,264,1.0,9.0,86,0.04,,,0.38,190,WxPro DR1,2013-02-28 20:20:00,
2013-02-28 15:25:00,37.3,33.5,29.58,WSW,255,1.0,9.0,86,0.04,,,0.39,148,WxPro DR1,2013-02-28 20:25:00,
2013-02-28 15:30:00,37.3,33.5,29.58,West,268,0.0,7.0,86,0.04,,,0.39,132,WxPro DR1,2013-02-28 20:30:00,
2013-02-28 15:35:00,37.3,33.5,29.58,West,259,2.0,10.0,86,0.04,,,0.39,130,WxPro DR1,2013-02-28 20:35:00,
2013-02-28 15:40:00,37.1,33.3,29.58,SW,220,3.0,10.0,86,0.04,,,0.40,141,WxPro DR1,2013-02-28 20:40:00,
2013-02-28 15:45:00,37.0,33.2,29.58,West,265,4.0,10.0,86,0.04,,,0.40,118,WxPro DR1,2013-02-28 20:45:00,
2013-02-28 15:50:00,36.9,33.2,29.59,WSW,248,1.0,11.0,86,0.04,,,0.40,98,WxPro DR1,2013-02-28 20:50:00,
2013-02-28 15:55:00,36.9,33.1,29.59,West,269,9.0,11.0,86,0.03,,,0.40,76,WxPro DR1,2013-02-28 20:55:00,
2013-02-28 16:00:00,36.8,33.3,29.59,WNW,283,3.0,9.0,87,0.04,,,0.41,76,WxPro DR1,2013-02-28 21:00:00,
2013-02-28 16:05:00,36.7,33.7,29.59,West,269,1.0,10.0,89,0.04,,,0.41,74,WxPro DR1,2013-02-28 21:05:00,
2013-02-28 16:10:00,36.6,33.1,29.59,West,261,1.0,10.0,87,0.03,,,0.41,46,WxPro DR1,2013-02-28 21:10:00,
2013-02-28 16:15:00,36.6,33.1,29.59,SW,235,2.0,6.0,87,0.03,,,0.41,47,WxPro DR1,2013-02-28 21:15:00,
2013-02-28 16:20:00,36.5,33.0,29.59,West,265,4.0,7.0,87,0.03,,,0.41,54,WxPro DR1,2013-02-28 21:20:00,
2013-02-28 16:25:00,36.4,33.0,29.59,West,269,1.0,9.0,87,0.02,,,0.41,33,WxPro DR1,2013-02-28 21:25:00,
2013-02-28 16:30:00,36.4,33.2,29.59,WSW,257,4.0,9.0,88,0.03,,,0.42,21,WxPro DR1,2013-02-28 21:30:00,
2013-02-28 16:35:00,36.3,33.1,29.60,WSW,252,2.0,7.0,88,0.03,,,0.42,14,WxPro DR1,2013-02-28 21:35:00,
2013-02-28 16:40:00,36.2,33.0,29.60,WSW,250,4.0,10.0,88,0.02,,,0.42,14,WxPro DR1,2013-02-28 21:40:00,
2013-02-28 16:45:00,36.0,33.1,29.60,SW,228,3.0,10.0,89,0.02,,,0.42,21,WxPro DR1,2013-02-28 21:45:00,
2013-02-28 16:50:00,35.9,33.0,29.60,SW,236,0.0,9.0,89,0.02,,,0.42,26,WxPro DR1,2013-02-28 21:50:00,
2013-02-28 16:55:00,35.8,33.2,29.60,WNW,284,3.0,9.0,90,0.02,,,0.42,21,WxPro DR1,2013-02-28 21:55:00,
2013-02-28 17:00:00,35.8,33.1,29.61,West,279,4.0,6.0,90,0.01,,,0.42,11,WxPro DR1,2013-02-28 22:00:00,
2013-02-28 17:05:00,35.7,33.1,29.61,WSW,249,3.0,7.0,90,0.01,,,0.42,7,WxPro DR1,2013-02-28 22:05:00,
2013-02-28 17:10:00,35.6,33.0,29.61,NW,323,4.0,9.0,90,0.01,,,0.42,5,WxPro DR1,2013-02-28 22:10:00,
2013-02-28 17:15:00,35.4,33.1,29.62,NW,308,1.0,10.0,91,0.02,,,0.43,7,WxPro DR1,2013-02-28 22:15:00,
2013-02-28 17:20:00,35.2,33.1,29.62,WNW,302,3.0,10.0,92,0.02,,,0.43,7,WxPro DR1,2013-02-28 22:20:00,
2013-02-28 17:25:00,34.9,32.8,29.62,NW,309,3.0,6.0,92,0.02,,,0.43,9,WxPro DR1,2013-02-28 22:25:00,
2013-02-28 17:30:00,34.8,32.9,29.62,West,265,2.0,5.0,93,0.01,,,0.43,9,WxPro DR1,2013-02-28 22:30:00,
2013-02-28 17:35:00,34.6,32.8,29.62,NW,309,1.0,6.0,93,0.01,,,0.43,9,WxPro DR1,2013-02-28 22:35:00,
2013-02-28 17:40:00,34.5,32.7,29.62,NW,311,2.0,6.0,93,0.01,,,0.43,5,WxPro DR1,2013-02-28 22:40:00,
2013-02-28 17:45:00,34.4,32.9,29.63,NW,310,4.0,5.0,94,0.01,,,0.43,0,WxPro DR1,2013-02-28 22:45:00,
2013-02-28 17:50:00,34.4,32.9,29.63,WNW,299,0.0,7.0,94,0.01,,,0.43,0,WxPro DR1,2013-02-28 22:50:00,
2013-02-28 17:55:00,34.4,32.9,29.63,NW,309,4.0,7.0,94,0.01,,,0.43,0,WxPro DR1,2013-02-28 22:55:00,
2013-02-28 18:00:00,34.4,32.9,29.63,NW,305,4.0,6.0,94,0.01,,,0.43,0,WxPro DR1,2013-02-28 23:00:00,
2013-02-28 18:05:00,34.4,32.9,29.64,WNW,296,2.0,7.0,94,0.01,,,0.43,0,WxPro DR1,2013-02-28 23:05:00,
2013-02-28 18:10:00,34.4,32.9,29.64,WNW,296,1.0,7.0,94,0.01,,,0.43,0,WxPro DR1,2013-02-28 23:10:00,
2013-02-28 18:15:00,34.4,32.9,29.64,WNW,301,1.0,5.0,94,0.00,,,0.43,0,WxPro DR1,2013-02-28 23:15:00,
2013-02-28 18:20:00,34.4,32.9,29.64,WNW,301,2.0,5.0,94,0.00,,,0.43,0,WxPro DR1,2013-02-28 23:20:00,
2013-02-28 18:25:00,34.4,32.9,29.64,WNW,301,1.0,5.0,94,0.00,,,0.43,0,WxPro DR1,2013-02-28 23:25:00,
2013-02-28 18:30:00,34.4,32.9,29.65,WNW,298,1.0,7.0,94,0.00,,,0.43,0,WxPro DR1,2013-02-28 23:30:00,
2013-02-28 18:35:00,34.4,32.9,29.65,WNW,298,1.0,7.0,94,0.00,,,0.43,0,WxPro DR1,2013-02-28 23:35:00,
2013-02-28 18:40:00,34.4,32.9,29.65,WNW,296,3.0,5.0,94,0.00,,,0.43,0,WxPro DR1,2013-02-28 23:40:00,
2013-02-28 18:45:00,34.4,32.9,29.65,WNW,294,0.0,5.0,94,0.00,,,0.43,0,WxPro DR1,2013-02-28 23:45:00,
2013-02-28 18:50:00,34.4,32.9,29.66,WNW,294,1.0,5.0,94,0.00,,,0.43,0,WxPro DR1,2013-02-28 23:50:00,
2013-02-28 18:55:00,34.4,32.9,29.66,WNW,293,0.0,5.0,94,0.00,,,0.43,0,WxPro DR1,2013-02-28 23:55:00,
2013-02-28 19:00:00,34.4,32.9,29.66,WNW,284,2.0,6.0,94,0.00,,,0.43,0,WxPro DR1,2013-03-01 00:00:00,
2013-02-28 19:05:00,34.4,32.9,29.66,WNW,283,4.0,6.0,94,0.00,,,0.43,0,WxPro DR1,2013-03-01 00:05:00,
2013-02-28 19:10:00,34.4,32.9,29.66,WNW,282,0.0,5.0,94,0.00,,,0.43,0,WxPro DR1,2013-03-01 00:10:00,
2013-02-28 19:15:00,34.4,32.9,29.66,WNW,282,0.0,5.0,94,0.01,,,0.44,0,WxPro DR1,2013-03-01 00:15:00,
2013-02-28 19:20:00,34.4,32.9,29.66,WNW,282,0.0,5.0,94,0.01,,,0.44,0,WxPro DR1,2013-03-01 00:20:00,
2013-02-28 19:25:00,34.4,32.8,29.66,WNW,282,1.0,5.0,94,0.01,,,0.44,0,WxPro DR1,2013-03-01 00:25:00,
2013-02-28 19:30:00,34.3,32.8,29.66,WNW,282,2.0,5.0,94,0.01,,,0.44,0,WxPro DR1,2013-03-01 00:30:00,
2013-02-28 19:35:00,34.2,32.9,29.66,West,281,2.0,5.0,95,0.01,,,0.44,0,WxPro DR1,2013-03-01 00:35:00,
2013-02-28 19:40:00,34.2,32.9,29.66,West,280,2.0,6.0,95,0.01,,,0.44,0,WxPro DR1,2013-03-01 00:40:00,
2013-02-28 19:45:00,34.1,32.8,29.66,West,276,0.0,6.0,95,0.01,,,0.44,0,WxPro DR1,2013-03-01 00:45:00,
2013-02-28 19:50:00,34.1,32.8,29.66,West,279,2.0,6.0,95,0.01,,,0.44,0,WxPro DR1,2013-03-01 00:50:00,
2013-02-28 19:55:00,34.1,32.8,29.67,WNW,283,3.0,6.0,95,0.01,,,0.44,0,WxPro DR1,2013-03-01 00:55:00,
2013-02-28 20:00:00,34.0,32.7,29.66,WNW,283,3.0,5.0,95,0.01,,,0.44,0,WxPro DR1,2013-03-01 01:00:00,
2013-02-28 20:05:00,34.0,32.7,29.67,WNW,285,2.0,6.0,95,0.01,,,0.44,0,WxPro DR1,2013-03-01 01:05:00,
2013-02-28 20:10:00,33.9,32.6,29.67,WNW,284,4.0,6.0,95,0.01,,,0.44,0,WxPro DR1,2013-03-01 01:10:00,
2013-02-28 20:15:00,33.8,32.8,29.67,WNW,286,2.0,6.0,96,0.00,,,0.44,0,WxPro DR1,2013-03-01 01:15:00,
2013-02-28 20:20:00,33.8,32.8,29.67,WNW,284,1.0,6.0,96,0.00,,,0.44,0,WxPro DR1,2013-03-01 01:20:00,
2013-02-28 20:25:00,33.8,32.8,29.67,WNW,284,0.0,5.0,96,0.00,,,0.44,0,WxPro DR1,2013-03-01 01:25:00,
2013-02-28 20:30:00,33.7,32.7,29.68,West,281,6.0,6.0,96,0.00,,,0.44,0,WxPro DR1,2013-03-01 01:30:00,
2013-02-28 20:35:00,33.8,32.7,29.68,West,279,1.0,6.0,96,0.00,,,0.44,0,WxPro DR1,2013-03-01 01:35:00,
2013-02-28 20:40:00,33.8,32.7,29.68,West,280,2.0,6.0,96,0.00,,,0.44,0,WxPro DR1,2013-03-01 01:40:00,
2013-02-28 20:45:00,33.7,32.7,29.68,West,280,3.0,5.0,96,0.00,,,0.44,0,WxPro DR1,2013-03-01 01:45:00,
2013-02-28 20:50:00,33.7,32.7,29.68,WNW,282,4.0,5.0,96,0.00,,,0.44,0,WxPro DR1,2013-03-01 01:50:00,
2013-02-28 20:55:00,33.7,32.7,29.68,WNW,282,1.0,5.0,96,0.00,,,0.44,0,WxPro DR1,2013-03-01 01:55:00,
2013-02-28 21:00:00,33.6,32.6,29.68,West,280,3.0,5.0,96,0.00,,,0.44,0,WxPro DR1,2013-03-01 02:00:00,
2013-02-28 21:06:00,33.5,32.5,29.68,West,280,0.0,4.0,96,0.00,,,0.44,0,WxPro DR1,2013-03-01 02:06:00,
2013-02-28 21:11:00,33.5,32.5,29.68,West,280,2.0,4.0,96,0.00,,,0.44,0,WxPro DR1,2013-03-01 02:11:00,
2013-02-28 21:16:00,33.5,32.5,29.68,West,280,0.0,4.0,96,0.00,,,0.44,0,WxPro DR1,2013-03-01 02:16:00,
2013-02-28 21:21:00,33.5,32.5,29.69,West,281,1.0,3.0,96,0.00,,,0.44,0,WxPro DR1,2013-03-01 02:21:00,
2013-02-28 21:26:00,33.4,32.7,29.69,West,280,1.0,2.0,97,0.00,,,0.44,0,WxPro DR1,2013-03-01 02:26:00,
2013-02-28 21:31:00,33.4,32.6,29.69,West,280,1.0,3.0,97,0.00,,,0.44,0,WxPro DR1,2013-03-01 02:31:00,
2013-02-28 21:36:00,33.4,32.6,29.69,WNW,282,2.0,4.0,97,0.00,,,0.44,0,WxPro DR1,2013-03-01 02:36:00,
2013-02-28 21:41:00,33.4,32.7,29.69,WNW,282,2.0,4.0,97,0.00,,,0.44,0,WxPro DR1,2013-03-01 02:41:00,
2013-02-28 21:46:00,33.5,32.7,29.69,WNW,282,0.0,4.0,97,0.00,,,0.44,0,WxPro DR1,2013-03-01 02:46:00,
2013-02-28 21:51:00,33.5,32.7,29.69,WNW,282,1.0,3.0,97,0.00,,,0.44,0,WxPro DR1,2013-03-01 02:51:00,
2013-02-28 21:56:00,33.5,32.7,29.69,WNW,282,2.0,4.0,97,0.00,,,0.44,0,WxPro DR1,2013-03-01 02:56:00,
2013-02-28 22:01:00,33.5,32.7,29.69,WNW,282,2.0,4.0,97,0.00,,,0.44,0,WxPro DR1,2013-03-01 03:01:00,
2013-02-28 22:06:00,33.5,32.7,29.70,WNW,282,2.0,4.0,97,0.00,,,0.44,0,WxPro DR1,2013-03-01 03:06:00,
2013-02-28 22:11:00,33.5,32.7,29.70,WNW,282,0.0,4.0,97,0.00,,,0.44,0,WxPro DR1,2013-03-01 03:11:00,
2013-02-28 22:16:00,33.5,32.7,29.70,West,280,2.0,6.0,97,0.00,,,0.44,0,WxPro DR1,2013-03-01 03:16:00,
2013-02-28 22:21:00,33.5,32.7,29.70,West,280,0.0,6.0,97,0.00,,,0.44,0,WxPro DR1,2013-03-01 03:21:00,
2013-02-28 22:26:00,33.5,32.7,29.70,West,280,1.0,3.0,97,0.00,,,0.44,0,WxPro DR1,2013-03-01 03:26:00,
2013-02-28 22:31:00,33.5,32.7,29.70,West,281,1.0,4.0,97,0.00,,,0.44,0,WxPro DR1,2013-03-01 03:31:00,
2013-02-28 22:36:00,33.5,32.7,29.70,West,280,1.0,4.0,97,0.00,,,0.44,0,WxPro DR1,2013-03-01 03:36:00,
2013-02-28 22:41:00,33.5,32.7,29.70,West,280,0.0,3.0,97,0.00,,,0.44,0,WxPro DR1,2013-03-01 03:41:00,
2013-02-28 22:46:00,33.5,32.7,29.70,West,280,0.0,3.0,97,0.00,,,0.44,0,WxPro DR1,2013-03-01 03:46:00,
2013-02-28 22:51:00,33.5,32.7,29.70,West,280,0.0,4.0,97,0.00,,,0.44,0,WxPro DR1,2013-03-01 03:51:00,
2013-02-28 22:56:00,33.5,32.7,29.70,West,280,0.0,4.0,97,0.00,,,0.44,0,WxPro DR1,2013-03-01 03:56:00,
2013-02-28 23:01:00,33.5,32.7,29.70,West,280,2.0,4.0,97,0.00,,,0.44,0,WxPro DR1,2013-03-01 04:01:00,
2013-02-28 23:06:00,33.5,32.7,29.70,West,281,0.0,4.0,97,0.00,,,0.44,0,WxPro DR1,2013-03-01 04:06:00,
2013-02-28 23:11:00,33.5,32.7,29.70,West,281,1.0,4.0,97,0.01,,,0.45,0,WxPro DR1,2013-03-01 04:11:00,
2013-02-28 23:16:00,33.4,32.7,29.70,West,280,2.0,4.0,97,0.01,,,0.45,0,WxPro DR1,2013-03-01 04:16:00,
2013-02-28 23:21:00,33.4,32.6,29.70,WNW,287,5.0,5.0,97,0.01,,,0.45,0,WxPro DR1,2013-03-01 04:21:00,
2013-02-28 23:26:00,33.4,32.6,29.70,WNW,290,3.0,5.0,97,0.01,,,0.45,0,WxPro DR1,2013-03-01 04:26:00,
2013-02-28 23:31:00,33.4,32.6,29.70,WNW,290,1.0,5.0,97,0.01,,,0.45,0,WxPro DR1,2013-03-01 04:31:00,
2013-02-28 23:36:00,33.4,32.6,29.70,WNW,294,0.0,5.0,97,0.01,,,0.45,0,WxPro DR1,2013-03-01 04:36:00,
2013-02-28 23:41:00,33.4,32.6,29.70,WNW,294,0.0,5.0,97,0.01,,,0.45,0,WxPro DR1,2013-03-01 04:41:00,
2013-02-28 23:46:00,33.4,32.7,29.71,WNW,294,2.0,4.0,97,0.01,,,0.45,0,WxPro DR1,2013-03-01 04:46:00,
2013-02-28 23:51:00,33.5,32.7,29.71,WNW,294,0.0,4.0,97,0.01,,,0.45,0,WxPro DR1,2013-03-01 04:51:00,
2013-02-28 23:56:00,33.5,32.9,29.71,WNW,294,0.0,4.0,98,0.01,,,0.45,0,WxPro DR1,2013-03-01 04:56:00,